Overview Statistics Trail Chart Weather Telemetry Raw packets
 

This is the latest recevied weather packets stored in our database for station/object W8KHW. If no packets are shown the sender has not sent any weather packets the latest 10 day(s).

<< 1 2 3 4 >>
Time Temp. Humidity Pressure Rain* Wind** Luminosity Snow
1777908963 18.89° C 62% 1009.4 hPa 0 mm - - -
1777908462 18.89° C 64% 1009.6 hPa 0 mm - - -
1777907962 18.33° C 61% 1009.6 hPa 0 mm - - -
1777907462 18.33° C 61% 1009.8 hPa 0 mm - - -
1777906962 17.78° C 60% 1009.5 hPa 0 mm - - -
1777906462 18.33° C 63% 1009.7 hPa 0 mm - - -
1777905961 17.78° C 61% 1009.9 hPa 0 mm - - -
1777905461 17.22° C 63% 1009.8 hPa 0 mm - - -
1777904961 17.22° C 64% 1009.7 hPa 0 mm - - -
1777904468 17.22° C 64% 1009.8 hPa 0 mm - - -
1777903960 16.67° C 62% 1009.8 hPa 0 mm - - -
1777903460 16.67° C 65% 1009.9 hPa 0 mm - - -
1777902960 16.11° C 64% 1010.2 hPa 0 mm - - -
1777902460 15.56° C 64% 1010.2 hPa 0 mm - - -
1777901959 15° C 65% 1010.6 hPa 0 mm - - -
1777901459 15° C 65% 1010.5 hPa 0 mm - - -
1777900959 14.44° C 66% 1010.1 hPa 0 mm - - -
1777900459 14.44° C 66% 1010.5 hPa 0 mm - - -
1777899959 14.44° C 65% 1010.4 hPa 0 mm - - -
1777899458 13.89° C 64% 1010.3 hPa 0 mm - - -
1777898958 13.89° C 65% 1010.3 hPa 0 mm - - -
1777898458 12.78° C 68% 1010.6 hPa 0 mm - - -
1777897958 12.78° C 69% 1010.6 hPa 0 mm - - -
1777897458 12.78° C 70% 1010.5 hPa 0 mm - - -
1777896957 12.22° C 70% 1010.4 hPa 0 mm - - -

* Rain latest hour (hover to see other rain measurements)
** Current wind speed in m/s (hover to see current wind gust speed)